Time,TemperatureF,DewpointF,PressureIn,WindDirection,WindDirectionDegrees,WindSpeedMPH,WindSpeedGustMPH,Humidity,HourlyPrecipIn,Conditions,Clouds,dailyrainin,SoftwareType,DateUTC
2013-05-04 00:00:00,48.0,43.1,30.39,SSE,155,1.0,4.0,83,0.00,,---,0.00,VWS V13.00,2013-05-04 04:00:00,
2013-05-04 00:01:00,47.9,43.3,30.39,SSE,155,0.0,4.0,84,0.00,,---,0.00,VWS V13.00,2013-05-04 04:01:00,
2013-05-04 00:06:00,47.9,43.3,30.39,SE,138,0.0,4.0,84,0.00,,---,0.00,VWS V13.00,2013-05-04 04:06:00,
2013-05-04 00:11:00,47.8,43.2,30.39,SE,138,0.0,1.0,84,0.00,,---,0.00,VWS V13.00,2013-05-04 04:11:00,
2013-05-04 00:16:00,47.7,43.1,30.39,SE,138,0.0,2.0,84,0.00,,---,0.00,VWS V13.00,2013-05-04 04:16:00,
2013-05-04 00:21:00,47.7,43.1,30.38,SE,138,0.0,2.0,84,0.00,,---,0.00,VWS V13.00,2013-05-04 04:21:00,
2013-05-04 00:26:00,47.7,43.1,30.38,SE,137,0.0,2.0,84,0.00,,---,0.00,VWS V13.00,2013-05-04 04:26:00,
2013-05-04 00:31:00,47.7,43.1,30.38,SE,137,0.0,2.0,84,0.00,,---,0.00,VWS V13.00,2013-05-04 04:31:00,
2013-05-04 00:36:00,47.7,43.1,30.38,SE,137,0.0,2.0,84,0.00,,---,0.00,VWS V13.00,2013-05-04 04:36:00,
2013-05-04 00:41:00,47.6,43.0,30.38,SE,137,0.0,0.0,84,0.00,,---,0.00,VWS V13.00,2013-05-04 04:41:00,
2013-05-04 00:46:00,47.5,42.9,30.38,SE,137,0.0,0.0,84,0.00,,---,0.00,VWS V13.00,2013-05-04 04:46:00,
2013-05-04 00:51:00,47.3,43.0,30.38,SE,137,0.0,0.0,85,0.00,,---,0.00,VWS V13.00,2013-05-04 04:51:00,
2013-05-04 00:56:00,47.0,42.7,30.38,SE,137,0.0,0.0,85,0.00,,---,0.00,VWS V13.00,2013-05-04 04:56:00,
2013-05-04 01:01:00,46.8,42.5,30.38,SE,137,0.0,0.0,85,0.00,,---,0.00,VWS V13.00,2013-05-04 05:01:00,
2013-05-04 01:06:00,46.7,42.7,30.38,SE,138,0.0,0.0,86,0.00,,---,0.00,VWS V13.00,2013-05-04 05:06:00,
2013-05-04 01:11:00,46.5,42.5,30.37,SE,137,0.0,0.0,86,0.00,,---,0.00,VWS V13.00,2013-05-04 05:11:00,
2013-05-04 01:16:00,46.4,42.8,30.37,SE,137,0.0,0.0,87,0.00,,---,0.00,VWS V13.00,2013-05-04 05:16:00,
2013-05-04 01:21:00,46.3,42.7,30.37,SE,137,0.0,0.0,87,0.00,,---,0.00,VWS V13.00,2013-05-04 05:21:00,
2013-05-04 01:26:00,46.2,42.5,30.36,SE,137,0.0,0.0,87,0.00,,---,0.00,VWS V13.00,2013-05-04 05:26:00,
2013-05-04 01:31:00,46.1,42.8,30.36,SE,137,0.0,0.0,88,0.00,,---,0.00,VWS V13.00,2013-05-04 05:31:00,
2013-05-04 01:36:00,46.0,43.8,30.36,SE,137,0.0,0.0,92,0.00,,---,0.00,VWS V13.00,2013-05-04 05:36:00,
2013-05-04 01:41:00,46.0,42.7,30.36,SE,137,0.0,0.0,88,0.00,,---,0.00,VWS V13.00,2013-05-04 05:41:00,
2013-05-04 01:46:00,46.0,42.7,30.36,SE,137,0.0,0.0,88,0.00,,---,0.00,VWS V13.00,2013-05-04 05:46:00,
2013-05-04 01:51:00,45.9,42.8,30.36,SE,137,0.0,1.0,89,0.00,,---,0.00,VWS V13.00,2013-05-04 05:51:00,
2013-05-04 01:56:00,46.0,43.0,30.36,SE,137,0.0,1.0,89,0.00,,---,0.00,VWS V13.00,2013-05-04 05:56:00,
2013-05-04 02:01:00,46.1,43.0,30.35,SE,137,0.0,1.0,89,0.00,,---,0.00,VWS V13.00,2013-05-04 06:01:00,
2013-05-04 02:06:00,46.2,43.1,30.35,SE,137,0.0,1.0,89,0.00,,---,0.00,VWS V13.00,2013-05-04 06:06:00,
2013-05-04 02:11:00,46.2,42.8,30.35,SE,137,0.0,0.0,88,0.00,,---,0.00,VWS V13.00,2013-05-04 06:11:00,
2013-05-04 02:16:00,46.1,42.8,30.35,SE,137,0.0,0.0,88,0.00,,---,0.00,VWS V13.00,2013-05-04 06:16:00,
2013-05-04 02:21:00,46.1,42.8,30.35,SE,137,0.0,0.0,88,0.00,,---,0.00,VWS V13.00,2013-05-04 06:21:00,
2013-05-04 02:26:00,46.1,42.8,30.35,SE,137,0.0,1.0,88,0.00,,---,0.00,VWS V13.00,2013-05-04 06:26:00,
2013-05-04 02:31:00,46.3,43.2,30.35,SE,137,0.0,1.0,89,0.00,,---,0.00,VWS V13.00,2013-05-04 06:31:00,
2013-05-04 02:36:00,46.3,43.2,30.35,SE,137,0.0,1.0,89,0.00,,---,0.00,VWS V13.00,2013-05-04 06:36:00,
2013-05-04 02:41:00,46.5,43.4,30.34,SE,137,0.0,0.0,89,0.00,,---,0.00,VWS V13.00,2013-05-04 06:41:00,
2013-05-04 02:46:00,46.5,43.4,30.34,SE,137,0.0,1.0,89,0.00,,---,0.00,VWS V13.00,2013-05-04 06:46:00,
2013-05-04 02:51:00,46.6,43.5,30.34,SE,137,0.0,1.0,89,0.00,,---,0.00,VWS V13.00,2013-05-04 06:51:00,
2013-05-04 02:56:00,46.5,43.4,30.34,SE,137,0.0,1.0,89,0.00,,---,0.00,VWS V13.00,2013-05-04 06:56:00,
2013-05-04 03:01:00,46.5,43.4,30.34,SE,138,0.0,1.0,89,0.00,,---,0.00,VWS V13.00,2013-05-04 07:01:00,
2013-05-04 03:06:00,46.4,43.3,30.35,SE,138,0.0,1.0,89,0.00,,---,0.00,VWS V13.00,2013-05-04 07:06:00,
2013-05-04 03:11:00,46.3,43.2,30.34,SE,138,0.0,0.0,89,0.00,,---,0.00,VWS V13.00,2013-05-04 07:11:00,
2013-05-04 03:16:00,46.2,43.1,30.34,SE,138,0.0,0.0,89,0.00,,---,0.00,VWS V13.00,2013-05-04 07:16:00,
2013-05-04 03:21:00,46.1,43.3,30.34,SE,138,0.0,0.0,90,0.00,,---,0.00,VWS V13.00,2013-05-04 07:21:00,
2013-05-04 03:26:00,46.1,43.3,30.34,SE,137,0.0,0.0,90,0.00,,---,0.00,VWS V13.00,2013-05-04 07:26:00,
2013-05-04 03:31:00,46.0,43.2,30.34,SE,138,0.0,0.0,90,0.00,,---,0.00,VWS V13.00,2013-05-04 07:31:00,
2013-05-04 03:36:00,45.8,43.0,30.34,SE,138,0.0,0.0,90,0.00,,---,0.00,VWS V13.00,2013-05-04 07:36:00,
2013-05-04 03:41:00,45.8,43.0,30.34,SE,137,0.0,1.0,90,0.00,,---,0.00,VWS V13.00,2013-05-04 07:41:00,
2013-05-04 03:46:00,45.7,43.2,30.34,SE,138,0.0,1.0,91,0.00,,---,0.00,VWS V13.00,2013-05-04 07:46:00,
2013-05-04 03:51:00,45.6,43.1,30.34,SE,138,0.0,1.0,91,0.00,,---,0.00,VWS V13.00,2013-05-04 07:51:00,
2013-05-04 03:56:00,45.4,42.9,30.34,SE,137,0.0,1.0,91,0.00,,---,0.00,VWS V13.00,2013-05-04 07:56:00,
2013-05-04 04:01:00,45.2,42.7,30.34,SE,138,0.0,1.0,91,0.00,,---,0.00,VWS V13.00,2013-05-04 08:01:00,
2013-05-04 04:06:00,45.0,42.5,30.34,SE,138,0.0,1.0,91,0.00,,---,0.00,VWS V13.00,2013-05-04 08:06:00,
2013-05-04 04:11:00,45.0,42.5,30.34,SE,137,0.0,0.0,91,0.00,,---,0.00,VWS V13.00,2013-05-04 08:11:00,
2013-05-04 04:16:00,45.0,42.8,30.34,SE,138,0.0,0.0,92,0.00,,---,0.00,VWS V13.00,2013-05-04 08:16:00,
2013-05-04 04:21:00,45.1,42.9,30.34,SE,137,0.0,0.0,92,0.00,,---,0.00,VWS V13.00,2013-05-04 08:21:00,
2013-05-04 04:26:00,45.1,43.2,30.34,SE,137,0.0,0.0,93,0.00,,---,0.00,VWS V13.00,2013-05-04 08:26:00,
2013-05-04 04:31:00,45.0,43.1,30.34,SE,138,0.0,0.0,93,0.00,,---,0.00,VWS V13.00,2013-05-04 08:31:00,
2013-05-04 04:36:00,45.0,43.1,30.34,SE,138,0.0,0.0,93,0.00,,---,0.00,VWS V13.00,2013-05-04 08:36:00,
2013-05-04 04:41:00,45.0,43.1,30.34,SE,138,0.0,0.0,93,0.00,,---,0.00,VWS V13.00,2013-05-04 08:41:00,
2013-05-04 04:46:00,44.9,43.0,30.34,SE,138,0.0,0.0,93,0.00,,---,0.00,VWS V13.00,2013-05-04 08:46:00,
2013-05-04 04:51:00,44.9,43.3,30.34,SE,137,0.0,0.0,94,0.00,,---,0.00,VWS V13.00,2013-05-04 08:51:00,
2013-05-04 04:56:00,45.0,43.4,30.34,SE,138,0.0,0.0,94,0.00,,---,0.00,VWS V13.00,2013-05-04 08:56:00,
2013-05-04 05:01:00,45.0,43.4,30.34,SE,138,0.0,0.0,94,0.00,,---,0.00,VWS V13.00,2013-05-04 09:01:00,
2013-05-04 05:06:00,45.0,43.4,30.34,SE,138,0.0,0.0,94,0.00,,---,0.00,VWS V13.00,2013-05-04 09:06:00,
2013-05-04 05:11:00,45.1,43.5,30.34,SE,137,0.0,1.0,94,0.00,,---,0.00,VWS V13.00,2013-05-04 09:11:00,
2013-05-04 05:16:00,45.1,43.5,30.34,SE,137,0.0,1.0,94,0.00,,---,0.00,VWS V13.00,2013-05-04 09:16:00,
2013-05-04 05:21:00,45.0,43.4,30.34,SE,134,3.0,3.0,94,0.00,,---,0.00,VWS V13.00,2013-05-04 09:21:00,
2013-05-04 05:26:00,44.9,43.3,30.34,SE,135,1.0,3.0,94,0.00,,---,0.00,VWS V13.00,2013-05-04 09:26:00,
2013-05-04 05:31:00,44.7,43.1,30.34,SE,135,1.0,3.0,94,0.00,,---,0.00,VWS V13.00,2013-05-04 09:31:00,
2013-05-04 05:36:00,44.6,43.0,30.35,SE,134,0.0,3.0,94,0.00,,---,0.00,VWS V13.00,2013-05-04 09:36:00,
2013-05-04 05:41:00,44.4,42.8,30.35,SE,134,0.0,1.0,94,0.00,,---,0.00,VWS V13.00,2013-05-04 09:41:00,
2013-05-04 05:46:00,44.3,42.7,30.35,SE,135,0.0,1.0,94,0.00,,---,0.00,VWS V13.00,2013-05-04 09:46:00,
2013-05-04 05:51:00,44.2,42.6,30.35,SE,135,0.0,1.0,94,0.00,,---,0.00,VWS V13.00,2013-05-04 09:51:00,
2013-05-04 05:56:00,44.0,42.4,30.35,SE,135,0.0,1.0,94,0.00,,---,0.00,VWS V13.00,2013-05-04 09:56:00,
2013-05-04 06:01:00,44.0,42.7,30.35,SE,134,0.0,1.0,95,0.00,,---,0.00,VWS V13.00,2013-05-04 10:01:00,
2013-05-04 06:06:00,44.1,42.8,30.36,SE,134,0.0,1.0,95,0.00,,---,0.00,VWS V13.00,2013-05-04 10:06:00,
2013-05-04 06:11:00,44.0,42.7,30.36,SE,135,0.0,0.0,95,0.00,,---,0.00,VWS V13.00,2013-05-04 10:11:00,
2013-05-04 06:16:00,44.0,42.7,30.36,SE,135,0.0,0.0,95,0.00,,---,0.00,VWS V13.00,2013-05-04 10:16:00,
2013-05-04 06:21:00,43.9,42.6,30.36,SE,135,0.0,0.0,95,0.00,,---,0.00,VWS V13.00,2013-05-04 10:21:00,
2013-05-04 06:26:00,43.9,42.6,30.36,SE,134,0.0,0.0,95,0.00,,---,0.00,VWS V13.00,2013-05-04 10:26:00,
2013-05-04 06:31:00,44.0,42.7,30.36,SE,135,0.0,1.0,95,0.00,,---,0.00,VWS V13.00,2013-05-04 10:31:00,
2013-05-04 06:36:00,44.0,42.7,30.37,SE,134,0.0,1.0,95,0.00,,---,0.00,VWS V13.00,2013-05-04 10:36:00,
2013-05-04 06:41:00,44.0,42.7,30.37,SE,134,0.0,1.0,95,0.00,,---,0.00,VWS V13.00,2013-05-04 10:41:00,
2013-05-04 06:46:00,44.2,42.9,30.37,East,97,1.0,3.0,95,0.00,,---,0.00,VWS V13.00,2013-05-04 10:46:00,
2013-05-04 06:51:00,44.3,43.0,30.37,East,97,0.0,3.0,95,0.00,,---,0.00,VWS V13.00,2013-05-04 10:51:00,
2013-05-04 06:56:00,44.4,43.1,30.37,East,97,0.0,3.0,95,0.00,,---,0.00,VWS V13.00,2013-05-04 10:56:00,
2013-05-04 07:01:00,44.5,43.2,30.37,East,96,1.0,3.0,95,0.00,,---,0.00,VWS V13.00,2013-05-04 11:01:00,
2013-05-04 07:06:00,44.7,43.4,30.37,East,95,0.0,3.0,95,0.00,,---,0.00,VWS V13.00,2013-05-04 11:06:00,
2013-05-04 07:11:00,44.7,43.4,30.38,East,95,0.0,0.0,95,0.00,,---,0.00,VWS V13.00,2013-05-04 11:11:00,
2013-05-04 07:16:00,45.0,43.7,30.38,East,96,0.0,1.0,95,0.00,,---,0.00,VWS V13.00,2013-05-04 11:16:00,
2013-05-04 07:21:00,45.2,43.9,30.38,East,96,0.0,1.0,95,0.00,,---,0.00,VWS V13.00,2013-05-04 11:21:00,
2013-05-04 07:26:00,45.4,43.8,30.38,East,96,0.0,2.0,94,0.00,,---,0.00,VWS V13.00,2013-05-04 11:26:00,
2013-05-04 07:31:00,45.5,43.9,30.38,East,96,0.0,2.0,94,0.00,,---,0.00,VWS V13.00,2013-05-04 11:31:00,
2013-05-04 07:36:00,45.6,44.0,30.38,East,96,0.0,2.0,94,0.00,,---,0.00,VWS V13.00,2013-05-04 11:36:00,
2013-05-04 07:41:00,45.8,44.2,30.38,East,96,0.0,1.0,94,0.00,,---,0.00,VWS V13.00,2013-05-04 11:41:00,
2013-05-04 07:46:00,46.0,44.4,30.38,East,96,0.0,1.0,94,0.00,,---,0.00,VWS V13.00,2013-05-04 11:46:00,
2013-05-04 07:51:00,46.3,44.4,30.39,East,96,0.0,1.0,93,0.00,,---,0.00,VWS V13.00,2013-05-04 11:51:00,
2013-05-04 07:56:00,46.7,44.8,30.38,East,96,0.0,1.0,93,0.00,,---,0.00,VWS V13.00,2013-05-04 11:56:00,
2013-05-04 08:01:00,47.2,45.3,30.38,East,96,0.0,1.0,93,0.00,,---,0.00,VWS V13.00,2013-05-04 12:01:00,
2013-05-04 08:06:00,47.8,45.0,30.38,NNE,19,0.0,4.0,90,0.00,,---,0.00,VWS V13.00,2013-05-04 12:06:00,
2013-05-04 08:11:00,48.5,45.4,30.39,NE,38,0.0,3.0,89,0.00,,---,0.00,VWS V13.00,2013-05-04 12:11:00,
2013-05-04 08:16:00,49.2,44.9,30.38,ESE,117,0.0,5.0,85,0.00,,---,0.00,VWS V13.00,2013-05-04 12:16:00,
2013-05-04 08:21:00,49.6,44.7,30.38,SE,127,0.0,5.0,83,0.00,,---,0.00,VWS V13.00,2013-05-04 12:21:00,
2013-05-04 08:26:00,50.0,44.4,30.38,ESE,122,0.0,5.0,81,0.00,,---,0.00,VWS V13.00,2013-05-04 12:26:00,
2013-05-04 08:31:00,50.5,44.6,30.38,SE,129,0.0,5.0,80,0.00,,---,0.00,VWS V13.00,2013-05-04 12:31:00,
2013-05-04 08:36:00,50.9,44.3,30.38,SE,145,0.0,5.0,78,0.00,,---,0.00,VWS V13.00,2013-05-04 12:36:00,
2013-05-04 08:41:00,51.4,44.8,30.38,SE,142,2.0,4.0,78,0.00,,---,0.00,VWS V13.00,2013-05-04 12:41:00,
2013-05-04 08:46:00,51.6,44.6,30.38,ESE,115,0.0,4.0,77,0.00,,---,0.00,VWS V13.00,2013-05-04 12:46:00,
2013-05-04 08:51:00,52.0,44.7,30.38,NNE,18,1.0,4.0,76,0.00,,---,0.00,VWS V13.00,2013-05-04 12:51:00,
2013-05-04 08:56:00,52.1,44.4,30.38,SE,136,1.0,4.0,75,0.00,,---,0.00,VWS V13.00,2013-05-04 12:56:00,
2013-05-04 09:01:00,52.3,44.3,30.38,North,355,1.0,6.0,74,0.00,,---,0.00,VWS V13.00,2013-05-04 13:01:00,
2013-05-04 09:04:00,52.4,44.4,30.38,NE,50,3.0,6.0,74,0.00,,---,0.00,VWS V13.00,2013-05-04 13:04:00,
2013-05-04 09:09:00,52.9,44.5,30.39,East,87,0.0,2.0,73,0.00,,---,0.00,VWS V13.00,2013-05-04 13:09:00,
2013-05-04 09:14:00,52.9,44.5,30.38,East,92,0.0,3.0,73,0.00,,---,0.00,VWS V13.00,2013-05-04 13:14:00,
2013-05-04 09:19:00,53.2,44.4,30.39,ESE,123,0.0,4.0,72,0.00,,---,0.00,VWS V13.00,2013-05-04 13:19:00,
2013-05-04 09:24:00,53.5,44.7,30.39,ESE,121,1.0,4.0,72,0.00,,---,0.00,VWS V13.00,2013-05-04 13:24:00,
2013-05-04 09:29:00,53.7,44.9,30.39,ESE,121,0.0,4.0,72,0.00,,---,0.00,VWS V13.00,2013-05-04 13:29:00,
2013-05-04 09:34:00,54.1,45.3,30.39,North,360,1.0,5.0,72,0.00,,---,0.00,VWS V13.00,2013-05-04 13:34:00,
2013-05-04 09:39:00,54.4,45.2,30.39,SE,141,0.0,5.0,71,0.00,,---,0.00,VWS V13.00,2013-05-04 13:39:00,
2013-05-04 09:44:00,55.0,45.4,30.39,ESE,103,0.0,5.0,70,0.00,,---,0.00,VWS V13.00,2013-05-04 13:44:00,
2013-05-04 09:49:00,55.6,45.6,30.38,East,94,0.0,5.0,69,0.00,,---,0.00,VWS V13.00,2013-05-04 13:49:00,
2013-05-04 09:54:00,56.2,46.2,30.38,East,94,2.0,5.0,69,0.00,,---,0.00,VWS V13.00,2013-05-04 13:54:00,
2013-05-04 09:59:00,57.0,45.8,30.38,East,98,0.0,5.0,66,0.00,,---,0.00,VWS V13.00,2013-05-04 13:59:00,
2013-05-04 10:04:00,57.1,46.3,30.38,ESE,119,0.0,5.0,67,0.00,,---,0.00,VWS V13.00,2013-05-04 14:04:00,
2013-05-04 10:09:00,57.6,46.3,30.38,ESE,119,0.0,1.0,66,0.00,,---,0.00,VWS V13.00,2013-05-04 14:09:00,
2013-05-04 10:14:00,58.2,46.1,30.38,SE,131,1.0,5.0,64,0.00,,---,0.00,VWS V13.00,2013-05-04 14:14:00,
2013-05-04 10:19:00,58.4,46.3,30.38,SE,132,0.0,5.0,64,0.00,,---,0.00,VWS V13.00,2013-05-04 14:19:00,
2013-05-04 10:24:00,59.0,46.8,30.38,ESE,114,1.0,5.0,64,0.00,,---,0.00,VWS V13.00,2013-05-04 14:24:00,
2013-05-04 10:29:00,59.0,45.6,30.37,ESE,112,1.0,5.0,61,0.00,,---,0.00,VWS V13.00,2013-05-04 14:29:00,
2013-05-04 10:34:00,59.0,46.0,30.37,ESE,103,2.0,5.0,62,0.00,,---,0.00,VWS V13.00,2013-05-04 14:34:00,
2013-05-04 10:39:00,59.8,46.8,30.37,SE,136,1.0,5.0,62,0.00,,---,0.00,VWS V13.00,2013-05-04 14:39:00,
2013-05-04 10:44:00,60.7,46.8,30.37,SE,140,0.0,5.0,60,0.00,,---,0.00,VWS V13.00,2013-05-04 14:44:00,
2013-05-04 10:49:00,60.6,46.2,30.37,SE,125,4.0,5.0,59,0.00,,---,0.00,VWS V13.00,2013-05-04 14:49:00,
2013-05-04 10:54:00,60.9,46.9,30.36,East,93,2.0,5.0,60,0.00,,---,0.00,VWS V13.00,2013-05-04 14:54:00,
2013-05-04 10:59:00,61.4,46.5,30.36,SSE,159,1.0,5.0,58,0.00,,---,0.00,VWS V13.00,2013-05-04 14:59:00,
2013-05-04 11:04:00,61.6,46.2,30.36,ENE,76,0.0,5.0,57,0.00,,---,0.00,VWS V13.00,2013-05-04 15:04:00,
2013-05-04 11:09:00,61.1,46.2,30.36,East,90,3.0,4.0,58,0.00,,---,0.00,VWS V13.00,2013-05-04 15:09:00,
2013-05-04 11:14:00,61.5,46.1,30.36,NNE,13,2.0,4.0,57,0.00,,---,0.00,VWS V13.00,2013-05-04 15:14:00,
2013-05-04 11:19:00,62.0,46.1,30.35,ENE,64,1.0,5.0,56,0.00,,---,0.00,VWS V13.00,2013-05-04 15:19:00,
2013-05-04 11:24:00,62.3,46.9,30.35,NW,325,0.0,5.0,57,0.00,,---,0.00,VWS V13.00,2013-05-04 15:24:00,
2013-05-04 11:29:00,62.9,45.5,30.35,NW,322,0.0,5.0,53,0.00,,---,0.00,VWS V13.00,2013-05-04 15:29:00,
2013-05-04 11:34:00,63.1,46.2,30.35,NW,324,1.0,5.0,54,0.00,,---,0.00,VWS V13.00,2013-05-04 15:34:00,
2013-05-04 11:39:00,63.0,46.1,30.35,SW,234,0.0,4.0,54,0.00,,---,0.00,VWS V13.00,2013-05-04 15:39:00,
2013-05-04 11:44:00,63.4,45.5,30.35,NNW,341,1.0,4.0,52,0.00,,---,0.00,VWS V13.00,2013-05-04 15:44:00,
2013-05-04 11:49:00,63.6,47.2,30.34,ESE,103,1.0,4.0,55,0.00,,---,0.00,VWS V13.00,2013-05-04 15:49:00,
2013-05-04 11:54:00,64.7,47.7,30.34,NNE,21,0.0,4.0,54,0.00,,---,0.00,VWS V13.00,2013-05-04 15:54:00,
2013-05-04 11:59:00,65.6,47.5,30.34,SE,136,3.0,5.0,52,0.00,,---,0.00,VWS V13.00,2013-05-04 15:59:00,
2013-05-04 12:04:00,65.5,45.3,30.34,ESE,121,3.0,5.0,48,0.00,,---,0.00,VWS V13.00,2013-05-04 16:04:00,
2013-05-04 12:09:00,65.6,44.8,30.34,East,94,0.0,2.0,47,0.00,,---,0.00,VWS V13.00,2013-05-04 16:09:00,
2013-05-04 12:14:00,64.8,45.2,30.34,SSE,148,5.0,7.0,49,0.00,,---,0.00,VWS V13.00,2013-05-04 16:14:00,
2013-05-04 12:19:00,65.1,45.5,30.34,South,173,5.0,7.0,49,0.00,,---,0.00,VWS V13.00,2013-05-04 16:19:00,
2013-05-04 12:24:00,65.4,44.1,30.34,East,96,2.0,7.0,46,0.00,,---,0.00,VWS V13.00,2013-05-04 16:24:00,
2013-05-04 12:29:00,66.1,45.3,30.34,NNE,24,4.0,7.0,47,0.00,,---,0.00,VWS V13.00,2013-05-04 16:29:00,
2013-05-04 12:34:00,66.3,43.8,30.33,SE,128,2.0,7.0,44,0.00,,---,0.00,VWS V13.00,2013-05-04 16:34:00,
2013-05-04 12:39:00,66.4,42.6,30.34,NNW,345,1.0,6.0,42,0.00,,---,0.00,VWS V13.00,2013-05-04 16:39:00,
2013-05-04 12:44:00,66.0,44.1,30.33,ESE,103,1.0,6.0,45,0.00,,---,0.00,VWS V13.00,2013-05-04 16:44:00,
2013-05-04 12:49:00,66.2,44.8,30.33,ESE,121,1.0,6.0,46,0.00,,---,0.00,VWS V13.00,2013-05-04 16:49:00,
2013-05-04 12:54:00,66.6,42.8,30.33,ESE,106,1.0,6.0,42,0.00,,---,0.00,VWS V13.00,2013-05-04 16:54:00,
2013-05-04 12:59:00,66.5,42.7,30.33,South,173,1.0,6.0,42,0.00,,---,0.00,VWS V13.00,2013-05-04 16:59:00,
2013-05-04 13:04:00,66.3,43.2,30.33,South,169,2.0,6.0,43,0.00,,---,0.00,VWS V13.00,2013-05-04 17:04:00,
2013-05-04 13:09:00,66.8,43.6,30.33,SE,130,2.0,5.0,43,0.00,,---,0.00,VWS V13.00,2013-05-04 17:09:00,
2013-05-04 13:14:00,68.1,42.9,30.33,NE,48,0.0,5.0,40,0.00,,---,0.00,VWS V13.00,2013-05-04 17:14:00,
2013-05-04 13:19:00,67.9,41.4,30.33,SE,136,1.0,5.0,38,0.00,,---,0.00,VWS V13.00,2013-05-04 17:19:00,
2013-05-04 13:24:00,66.9,42.5,30.33,East,82,1.0,5.0,41,0.00,,---,0.00,VWS V13.00,2013-05-04 17:24:00,
2013-05-04 13:29:00,66.7,41.6,30.32,South,188,1.0,6.0,40,0.00,,---,0.00,VWS V13.00,2013-05-04 17:29:00,
2013-05-04 13:34:00,67.5,42.3,30.32,ESE,112,4.0,11.0,40,0.00,,---,0.00,VWS V13.00,2013-05-04 17:34:00,
2013-05-04 13:39:00,68.1,41.6,30.32,South,171,3.0,4.0,38,0.00,,---,0.00,VWS V13.00,2013-05-04 17:39:00,
2013-05-04 13:44:00,68.6,42.0,30.32,NNE,14,2.0,4.0,38,0.00,,---,0.00,VWS V13.00,2013-05-04 17:44:00,
2013-05-04 13:49:00,68.7,40.7,30.32,ESE,123,1.0,6.0,36,0.00,,---,0.00,VWS V13.00,2013-05-04 17:49:00,
2013-05-04 13:54:00,67.9,42.1,30.32,SE,139,4.0,6.0,39,0.00,,---,0.00,VWS V13.00,2013-05-04 17:54:00,
2013-05-04 13:59:00,67.9,42.1,30.31,SE,138,2.0,6.0,39,0.00,,---,0.00,VWS V13.00,2013-05-04 17:59:00,
2013-05-04 14:04:00,68.3,41.7,30.31,ENE,57,2.0,9.0,38,0.00,,---,0.00,VWS V13.00,2013-05-04 18:04:00,
2013-05-04 14:09:00,68.4,41.8,30.31,SE,126,4.0,4.0,38,0.00,,---,0.00,VWS V13.00,2013-05-04 18:09:00,
2013-05-04 14:14:00,68.0,41.5,30.31,ESE,121,0.0,6.0,38,0.00,,---,0.00,VWS V13.00,2013-05-04 18:14:00,
2013-05-04 14:19:00,68.2,41.7,30.31,ESE,123,1.0,6.0,38,0.00,,---,0.00,VWS V13.00,2013-05-04 18:19:00,
2013-05-04 14:24:00,68.6,42.0,30.31,SSE,158,2.0,6.0,38,0.00,,---,0.00,VWS V13.00,2013-05-04 18:24:00,
2013-05-04 14:29:00,69.4,42.7,30.31,SSE,158,0.0,6.0,38,0.00,,---,0.00,VWS V13.00,2013-05-04 18:29:00,
2013-05-04 14:34:00,69.8,40.2,30.30,SSE,165,0.0,6.0,34,0.00,,---,0.00,VWS V13.00,2013-05-04 18:34:00,
2013-05-04 14:39:00,69.1,41.0,30.30,South,175,5.0,5.0,36,0.00,,---,0.00,VWS V13.00,2013-05-04 18:39:00,
2013-05-04 14:43:00,69.4,41.3,30.30,NE,36,0.0,5.0,36,0.00,,---,0.00,VWS V13.00,2013-05-04 18:43:00,
2013-05-04 14:48:00,69.8,40.9,30.30,SE,135,3.0,5.0,35,0.00,,---,0.00,VWS V13.00,2013-05-04 18:48:00,
2013-05-04 14:53:00,70.0,40.4,30.30,SW,226,0.0,5.0,34,0.00,,---,0.00,VWS V13.00,2013-05-04 18:53:00,
2013-05-04 14:58:00,69.7,40.1,30.30,ESE,118,1.0,5.0,34,0.00,,---,0.00,VWS V13.00,2013-05-04 18:58:00,
2013-05-04 15:03:00,69.3,42.6,30.30,South,177,4.0,5.0,38,0.00,,---,0.00,VWS V13.00,2013-05-04 19:03:00,
2013-05-04 15:08:00,68.5,42.6,30.30,South,182,6.0,6.0,39,0.00,,---,0.00,VWS V13.00,2013-05-04 19:08:00,
2013-05-04 15:13:00,67.9,42.7,30.29,South,177,2.0,10.0,40,0.00,,---,0.00,VWS V13.00,2013-05-04 19:13:00,
2013-05-04 15:18:00,67.5,42.3,30.29,SE,142,6.0,10.0,40,0.00,,---,0.00,VWS V13.00,2013-05-04 19:18:00,
2013-05-04 15:23:00,67.3,43.5,30.29,SSW,209,5.0,12.0,42,0.00,,---,0.00,VWS V13.00,2013-05-04 19:23:00,
2013-05-04 15:28:00,67.5,42.3,30.29,SSE,153,0.0,12.0,40,0.00,,---,0.00,VWS V13.00,2013-05-04 19:28:00,
2013-05-04 15:33:00,67.8,42.6,30.29,SSE,161,1.0,12.0,40,0.00,,---,0.00,VWS V13.00,2013-05-04 19:33:00,
2013-05-04 15:38:00,67.5,42.3,30.29,SSE,162,4.0,5.0,40,0.00,,---,0.00,VWS V13.00,2013-05-04 19:38:00,
2013-05-04 15:43:00,67.6,42.4,30.29,ESE,102,2.0,6.0,40,0.00,,---,0.00,VWS V13.00,2013-05-04 19:43:00,
2013-05-04 15:48:00,67.6,43.1,30.28,SSE,165,1.0,6.0,41,0.00,,---,0.00,VWS V13.00,2013-05-04 19:48:00,
2013-05-04 15:53:00,67.7,42.5,30.28,SE,138,5.0,6.0,40,0.00,,---,0.00,VWS V13.00,2013-05-04 19:53:00,
2013-05-04 15:58:00,67.4,41.6,30.28,SSE,159,0.0,6.0,39,0.00,,---,0.00,VWS V13.00,2013-05-04 19:58:00,
2013-05-04 16:03:00,67.3,41.5,30.28,SE,132,5.0,6.0,39,0.00,,---,0.00,VWS V13.00,2013-05-04 20:03:00,
2013-05-04 16:08:00,67.4,43.5,30.28,East,99,4.0,5.0,42,0.00,,---,0.00,VWS V13.00,2013-05-04 20:08:00,
2013-05-04 16:13:00,67.4,42.9,30.28,South,175,2.0,5.0,41,0.00,,---,0.00,VWS V13.00,2013-05-04 20:13:00,
2013-05-04 16:18:00,67.1,42.0,30.28,East,96,1.0,7.0,40,0.00,,---,0.00,VWS V13.00,2013-05-04 20:18:00,
2013-05-04 16:23:00,66.7,41.6,30.28,SE,126,3.0,7.0,40,0.00,,---,0.00,VWS V13.00,2013-05-04 20:23:00,
2013-05-04 16:28:00,66.0,41.7,30.28,SSE,155,1.0,9.0,41,0.00,,---,0.00,VWS V13.00,2013-05-04 20:28:00,
2013-05-04 16:33:00,65.9,41.6,30.28,SSE,148,5.0,9.0,41,0.00,,---,0.00,VWS V13.00,2013-05-04 20:33:00,
2013-05-04 16:38:00,65.9,40.9,30.28,SE,126,3.0,4.0,40,0.00,,---,0.00,VWS V13.00,2013-05-04 20:38:00,
2013-05-04 16:43:00,65.8,40.8,30.28,SW,216,0.0,11.0,40,0.00,,---,0.00,VWS V13.00,2013-05-04 20:43:00,
2013-05-04 16:48:00,65.5,39.9,30.28,SSE,158,3.0,11.0,39,0.00,,---,0.00,VWS V13.00,2013-05-04 20:48:00,
2013-05-04 16:53:00,65.2,39.6,30.29,SSE,148,6.0,12.0,39,0.00,,---,0.00,VWS V13.00,2013-05-04 20:53:00,
2013-05-04 16:58:00,64.7,39.2,30.29,SE,142,3.0,12.0,39,0.00,,---,0.00,VWS V13.00,2013-05-04 20:58:00,
2013-05-04 17:03:00,64.6,39.8,30.28,SSE,160,5.0,12.0,40,0.00,,---,0.00,VWS V13.00,2013-05-04 21:03:00,
2013-05-04 17:08:00,64.7,40.5,30.28,ESE,123,3.0,4.0,41,0.00,,---,0.00,VWS V13.00,2013-05-04 21:08:00,
2013-05-04 17:13:00,64.1,38.0,30.28,South,173,3.0,12.0,38,0.00,,---,0.00,VWS V13.00,2013-05-04 21:13:00,
2013-05-04 17:18:00,63.7,38.3,30.28,SSE,154,3.0,12.0,39,0.00,,---,0.00,VWS V13.00,2013-05-04 21:18:00,
2013-05-04 17:23:00,63.4,38.0,30.29,SSE,157,3.0,12.0,39,0.00,,---,0.00,VWS V13.00,2013-05-04 21:23:00,
2013-05-04 17:28:00,63.5,38.8,30.29,SSE,151,2.0,12.0,40,0.00,,---,0.00,VWS V13.00,2013-05-04 21:28:00,
2013-05-04 17:33:00,63.2,37.9,30.29,SSE,151,0.0,12.0,39,0.00,,---,0.00,VWS V13.00,2013-05-04 21:33:00,
2013-05-04 17:38:00,63.0,37.7,30.29,SE,142,3.0,6.0,39,0.00,,---,0.00,VWS V13.00,2013-05-04 21:38:00,
2013-05-04 17:43:00,62.4,37.8,30.30,ESE,121,4.0,12.0,40,0.00,,---,0.00,VWS V13.00,2013-05-04 21:43:00,
2013-05-04 17:48:00,62.1,38.1,30.30,SE,136,4.0,12.0,41,0.00,,---,0.00,VWS V13.00,2013-05-04 21:48:00,
2013-05-04 17:53:00,61.7,39.0,30.30,East,98,2.0,12.0,43,0.00,,---,0.00,VWS V13.00,2013-05-04 21:53:00,
2013-05-04 17:58:00,61.3,38.0,30.30,SSE,154,3.0,12.0,42,0.00,,---,0.00,VWS V13.00,2013-05-04 21:58:00,
2013-05-04 18:03:00,61.3,38.6,30.30,SSW,205,2.0,12.0,43,0.00,,---,0.00,VWS V13.00,2013-05-04 22:03:00,
2013-05-04 18:08:00,60.9,38.9,30.30,SE,138,4.0,4.0,44,0.00,,---,0.00,VWS V13.00,2013-05-04 22:08:00,
2013-05-04 18:13:00,60.7,39.8,30.30,SSE,167,5.0,9.0,46,0.00,,---,0.00,VWS V13.00,2013-05-04 22:13:00,
2013-05-04 18:18:00,60.2,39.4,30.30,SE,128,1.0,9.0,46,0.00,,---,0.00,VWS V13.00,2013-05-04 22:18:00,
2013-05-04 18:23:00,59.6,39.9,30.30,SE,145,3.0,10.0,48,0.00,,---,0.00,VWS V13.00,2013-05-04 22:23:00,
2013-05-04 18:28:00,59.0,39.4,30.30,ESE,119,2.0,10.0,48,0.00,,---,0.00,VWS V13.00,2013-05-04 22:28:00,
2013-05-04 18:33:00,58.5,39.4,30.30,ENE,63,3.0,10.0,49,0.00,,---,0.00,VWS V13.00,2013-05-04 22:33:00,
2013-05-04 18:38:00,58.2,39.7,30.30,SE,136,4.0,5.0,50,0.00,,---,0.00,VWS V13.00,2013-05-04 22:38:00,
2013-05-04 18:43:00,57.8,39.3,30.30,SSE,167,3.0,5.0,50,0.00,,---,0.00,VWS V13.00,2013-05-04 22:43:00,
2013-05-04 18:48:00,57.4,38.9,30.31,SSE,150,0.0,5.0,50,0.00,,---,0.00,VWS V13.00,2013-05-04 22:48:00,
2013-05-04 18:53:00,56.9,39.0,30.31,SE,126,1.0,5.0,51,0.00,,---,0.00,VWS V13.00,2013-05-04 22:53:00,
2013-05-04 18:58:00,56.4,39.0,30.31,South,184,3.0,5.0,52,0.00,,---,0.00,VWS V13.00,2013-05-04 22:58:00,
2013-05-04 19:03:00,56.0,39.1,30.31,SE,124,4.0,6.0,53,0.00,,---,0.00,VWS V13.00,2013-05-04 23:03:00,
2013-05-04 19:08:00,55.5,38.7,30.30,SSE,157,3.0,4.0,53,0.00,,---,0.00,VWS V13.00,2013-05-04 23:08:00,
2013-05-04 19:13:00,54.9,38.1,30.31,East,83,3.0,4.0,53,0.00,,---,0.00,VWS V13.00,2013-05-04 23:13:00,
2013-05-04 19:18:00,54.2,37.5,30.31,SSE,148,1.0,8.0,53,0.00,,---,0.00,VWS V13.00,2013-05-04 23:18:00,
2013-05-04 19:23:00,53.6,36.9,30.31,SE,132,1.0,8.0,53,0.00,,---,0.00,VWS V13.00,2013-05-04 23:23:00,
2013-05-04 19:28:00,53.1,36.4,30.32,SSE,150,3.0,8.0,53,0.00,,---,0.00,VWS V13.00,2013-05-04 23:28:00,
2013-05-04 19:33:00,52.6,36.0,30.32,SE,132,1.0,8.0,53,0.00,,---,0.00,VWS V13.00,2013-05-04 23:33:00,
2013-05-04 19:38:00,52.1,36.0,30.32,SE,129,2.0,2.0,54,0.00,,---,0.00,VWS V13.00,2013-05-04 23:38:00,
2013-05-04 19:43:00,51.7,36.1,30.32,ESE,123,0.0,6.0,55,0.00,,---,0.00,VWS V13.00,2013-05-04 23:43:00,
2013-05-04 19:48:00,51.1,35.5,30.32,SE,128,3.0,6.0,55,0.00,,---,0.00,VWS V13.00,2013-05-04 23:48:00,
2013-05-04 19:53:00,50.6,35.5,30.32,SSE,155,2.0,6.0,56,0.00,,---,0.00,VWS V13.00,2013-05-04 23:53:00,
2013-05-04 19:58:00,50.1,35.9,30.33,SSE,152,1.0,6.0,58,0.00,,---,0.00,VWS V13.00,2013-05-04 23:58:00,
2013-05-04 20:03:00,49.8,35.6,30.33,ESE,116,2.0,6.0,58,0.00,,---,0.00,VWS V13.00,2013-05-05 00:03:00,
2013-05-04 20:08:00,49.4,35.7,30.32,East,84,2.0,3.0,59,0.00,,---,0.00,VWS V13.00,2013-05-05 00:08:00,
2013-05-04 20:13:00,49.1,35.4,30.33,East,95,0.0,3.0,59,0.00,,---,0.00,VWS V13.00,2013-05-05 00:13:00,
2013-05-04 20:18:00,48.7,35.5,30.33,East,101,1.0,4.0,60,0.00,,---,0.00,VWS V13.00,2013-05-05 00:18:00,
2013-05-04 20:23:00,48.5,35.7,30.33,ENE,59,3.0,4.0,61,0.00,,---,0.00,VWS V13.00,2013-05-05 00:23:00,
2013-05-04 20:28:00,48.1,35.7,30.33,East,94,2.0,4.0,62,0.00,,---,0.00,VWS V13.00,2013-05-05 00:28:00,
2013-05-04 20:33:00,47.9,35.5,30.34,East,94,0.0,4.0,62,0.00,,---,0.00,VWS V13.00,2013-05-05 00:33:00,
2013-05-04 20:38:00,47.6,35.6,30.34,East,94,0.0,3.0,63,0.00,,---,0.00,VWS V13.00,2013-05-05 00:38:00,
2013-05-04 20:43:00,47.4,35.8,30.34,East,98,1.0,3.0,64,0.00,,---,0.00,VWS V13.00,2013-05-05 00:43:00,
2013-05-04 20:48:00,47.1,36.0,30.34,East,98,1.0,3.0,65,0.00,,---,0.00,VWS V13.00,2013-05-05 00:48:00,
2013-05-04 20:53:00,46.9,35.8,30.34,East,98,0.0,3.0,65,0.00,,---,0.00,VWS V13.00,2013-05-05 00:53:00,
2013-05-04 20:58:00,46.7,35.6,30.34,East,98,0.0,3.0,65,0.00,,---,0.00,VWS V13.00,2013-05-05 00:58:00,
2013-05-04 21:03:00,46.5,35.4,30.35,East,99,0.0,3.0,65,0.00,,---,0.00,VWS V13.00,2013-05-05 01:03:00,
2013-05-04 21:08:00,46.3,35.6,30.35,East,99,0.0,2.0,66,0.00,,---,0.00,VWS V13.00,2013-05-05 01:08:00,
2013-05-04 21:13:00,46.1,35.4,30.35,East,99,1.0,2.0,66,0.00,,---,0.00,VWS V13.00,2013-05-05 01:13:00,
2013-05-04 21:18:00,45.9,35.6,30.35,East,99,0.0,2.0,67,0.00,,---,0.00,VWS V13.00,2013-05-05 01:18:00,
2013-05-04 21:23:00,45.6,35.3,30.35,East,99,0.0,2.0,67,0.00,,---,0.00,VWS V13.00,2013-05-05 01:23:00,
2013-05-04 21:28:00,45.4,35.8,30.35,East,99,0.0,2.0,69,0.00,,---,0.00,VWS V13.00,2013-05-05 01:28:00,
2013-05-04 21:33:00,45.0,35.5,30.35,ESE,105,1.0,3.0,69,0.00,,---,0.00,VWS V13.00,2013-05-05 01:33:00,
2013-05-04 21:38:00,44.9,35.4,30.35,ESE,105,1.0,1.0,69,0.00,,---,0.00,VWS V13.00,2013-05-05 01:38:00,
2013-05-04 21:43:00,44.6,35.4,30.35,ESE,105,0.0,2.0,70,0.00,,---,0.00,VWS V13.00,2013-05-05 01:43:00,
2013-05-04 21:48:00,44.4,36.0,30.35,ESE,105,0.0,2.0,72,0.00,,---,0.00,VWS V13.00,2013-05-05 01:48:00,
2013-05-04 21:53:00,44.2,35.8,30.35,ESE,105,0.0,2.0,72,0.00,,---,0.00,VWS V13.00,2013-05-05 01:53:00,
2013-05-04 21:58:00,44.0,35.9,30.35,ESE,105,0.0,2.0,73,0.00,,---,0.00,VWS V13.00,2013-05-05 01:58:00,
2013-05-04 22:03:00,43.8,36.1,30.35,ESE,105,0.0,2.0,74,0.00,,---,0.00,VWS V13.00,2013-05-05 02:03:00,
2013-05-04 22:08:00,43.7,36.0,30.35,ESE,105,0.0,2.0,74,0.00,,---,0.00,VWS V13.00,2013-05-05 02:08:00,
2013-05-04 22:13:00,43.5,35.8,30.35,ESE,105,0.0,2.0,74,0.00,,---,0.00,VWS V13.00,2013-05-05 02:13:00,
2013-05-04 22:18:00,43.4,35.7,30.35,ESE,105,0.0,2.0,74,0.00,,---,0.00,VWS V13.00,2013-05-05 02:18:00,
2013-05-04 22:23:00,43.2,35.5,30.35,ESE,105,0.0,2.0,74,0.00,,---,0.00,VWS V13.00,2013-05-05 02:23:00,
2013-05-04 22:28:00,42.9,35.5,30.35,ESE,105,0.0,2.0,75,0.00,,---,0.00,VWS V13.00,2013-05-05 02:28:00,
2013-05-04 22:33:00,42.7,35.7,30.35,ESE,105,2.0,2.0,76,0.00,,---,0.00,VWS V13.00,2013-05-05 02:33:00,
2013-05-04 22:38:00,42.6,35.6,30.35,ESE,105,0.0,0.0,76,0.00,,---,0.00,VWS V13.00,2013-05-05 02:38:00,
2013-05-04 22:43:00,42.4,35.7,30.35,ESE,105,0.0,1.0,77,0.00,,---,0.00,VWS V13.00,2013-05-05 02:43:00,
2013-05-04 22:48:00,42.3,35.9,30.35,ESE,105,0.0,1.0,78,0.00,,---,0.00,VWS V13.00,2013-05-05 02:48:00,
2013-05-04 22:53:00,42.1,35.8,30.35,ESE,105,0.0,1.0,78,0.00,,---,0.00,VWS V13.00,2013-05-05 02:53:00,
2013-05-04 22:58:00,42.0,36.0,30.35,ESE,105,0.0,1.0,79,0.00,,---,0.00,VWS V13.00,2013-05-05 02:58:00,
2013-05-04 23:03:00,41.9,35.9,30.35,ESE,105,0.0,1.0,79,0.00,,---,0.00,VWS V13.00,2013-05-05 03:03:00,
2013-05-04 23:08:00,41.8,36.1,30.34,ESE,105,0.0,0.0,80,0.00,,---,0.00,VWS V13.00,2013-05-05 03:08:00,
2013-05-04 23:13:00,41.6,35.9,30.34,ESE,105,0.0,0.0,80,0.00,,---,0.00,VWS V13.00,2013-05-05 03:13:00,
2013-05-04 23:18:00,41.4,35.7,30.34,ESE,105,0.0,0.0,80,0.00,,---,0.00,VWS V13.00,2013-05-05 03:18:00,
2013-05-04 23:23:00,41.1,35.7,30.35,ESE,105,0.0,0.0,81,0.00,,---,0.00,VWS V13.00,2013-05-05 03:23:00,
2013-05-04 23:28:00,40.9,35.8,30.35,ESE,105,0.0,0.0,82,0.00,,---,0.00,VWS V13.00,2013-05-05 03:28:00,
2013-05-04 23:33:00,40.6,35.5,30.34,ESE,105,0.0,0.0,82,0.00,,---,0.00,VWS V13.00,2013-05-05 03:33:00,
2013-05-04 23:38:00,40.3,35.6,30.34,ESE,105,0.0,0.0,83,0.00,,---,0.00,VWS V13.00,2013-05-05 03:38:00,
2013-05-04 23:43:00,40.1,35.7,30.34,ESE,105,0.0,0.0,84,0.00,,---,0.00,VWS V13.00,2013-05-05 03:43:00,
2013-05-04 23:48:00,39.8,35.7,30.34,ESE,105,0.0,0.0,85,0.00,,---,0.00,VWS V13.00,2013-05-05 03:48:00,
2013-05-04 23:53:00,39.7,35.6,30.34,ESE,105,0.0,0.0,85,0.00,,---,0.00,VWS V13.00,2013-05-05 03:53:00,
2013-05-04 23:58:00,39.7,36.2,30.34,ESE,105,0.0,1.0,87,0.00,,---,0.00,VWS V13.00,2013-05-05 03:58:00,